User: anonymous   Login
Location: Sungai Bunut
(2.6333°N, 113.7333°E)
Time: 15:59:22
(UTC+00:00)
Language:

Cosmos 1726 - Orbit

View from above orbital plane
View from above orbital plane
View from above satellite
View from above satellite

Ground track
Ground track

The orbit data is extracted from the following two-line orbital elements,

1 16495U 86006A   22021.88922024  .00003123  00000-0  11720-3 0  9990
2 16495  82.4724 183.2037 0013223  60.2880 299.9673 15.26755023972013
Epoch (UTC): 21 January 2022 21:20:28
Eccentricity: 0.0013223
inclination: 82.4724°
perigee height: 476 km
apogee height: 494 km
right ascension of ascending node: 183.2037°
argument of perigee: 60.2880°
revolutions per day: 15.26755023
mean anomaly at epoch: 299.9673°
orbit number at epoch: 97201

The dashed part of the orbit path shows where the satellite is in the earth's shadow,  

DLR